• MPC Preparation (Info)

  • MPEC 2014-F62 : 2014 FT37

    The following Minor Planet Electronic Circular may be linked-to from your own Web pages, but must not otherwise be redistributed electronically.

    A form allowing access to any MPEC is at the bottom of this page.


    Read MPEC 2014-F61 Read MPEC 2014-F63


    M.P.E.C. 2014-F62                                Issued 2014 Mar. 28, 22:48 UT
    
         The Minor Planet Electronic Circulars contain information on unusual
             minor planets and routine data on comets.  They are published
       on behalf of Commission 20 of the International Astronomical Union by the
              Minor Planet Center, Smithsonian Astrophysical Observatory,
                              Cambridge, MA 02138, U.S.A.
    
                 Prepared using the Tamkin Foundation Computer Network
    
                                  MPC@CFA.HARVARD.EDU
                URL https://www.minorplanetcenter.net/    ISSN 1523-6714
    
                                       2014 FT37
    
    Observations:
         K14F37T  C2014 03 25.26355 09 58 58.327+27 37 08.96         20.8 wLEF062F51
         K14F37T  C2014 03 25.27552 09 58 58.234+27 36 09.62         20.7 wLEF062F51
         K14F37T  C2014 03 25.28760 09 58 58.067+27 35 07.87         20.9 wLEF062F51
         K14F37T* C2014 03 28.17306 10 19 09.95 +15 36 55.3          18.4 VqEF062703
         K14F37T  C2014 03 28.17915 10 19 13.60 +15 33 04.9          19.3 VqEF062703
         K14F37T  C2014 03 28.18525 10 19 17.35 +15 29 02.8          18.3 VqEF062703
         K14F37T  C2014 03 28.19133 10 19 21.07 +15 25 04.5          18.2 VqEF062703
         K14F37T  C2014 03 28.22382 10 19 40.94 +15 03 18.8          18.2 VqEF062703
         K14F37T  C2014 03 28.22412 10 19 41.18 +15 03 06.5          18.0 VqEF062703
         K14F37T  C2014 03 28.22442 10 19 41.32 +15 02 54.6          18.1 VqEF062703
         K14F37T  C2014 03 28.22473 10 19 41.52 +15 02 41.7          18.5 VqEF062703
         K14F37T  C2014 03 28.24576 10 19 54.79 +14 48 22.7          18.4 RoEF062926
         K14F37T  C2014 03 28.24662 10 19 55.33 +14 47 46.5          18.3 RoEF062926
         K14F37T  C2014 03 28.24747 10 19 55.87 +14 47 10.5          18.4 RoEF062926
         K14F37T HC2014 03 28.28611 10 20 22.36 +14 18 58.9          17.8 RoEF062291
         K14F37T HC2014 03 28.28622 10 20 22.43 +14 18 54.4          18.2 RoEF062291
         K14F37T HC2014 03 28.28631 10 20 22.51 +14 18 49.5          17.7 RoEF062291
         K14F37T  C2014 03 28.32102 10 20 47.02 +13 52 13.3          18.0 VqEF062703
         K14F37T  C2014 03 28.32131 10 20 47.16 +13 51 59.4          18.1 VqEF062703
         K14F37T  C2014 03 28.32160 10 20 47.42 +13 51 45.9          18.4 VqEF062703
         K14F37T  C2014 03 28.32189 10 20 47.60 +13 51 31.6          18.6 VqEF062703
         K14F37T  C2014 03 28.35469 10 21 13.90 +13 25 43.4          17.9 RoEF062926
         K14F37T  C2014 03 28.35553 10 21 14.63 +13 25 02.4          18.0 RoEF062926
         K14F37T  C2014 03 28.35638 10 21 15.37 +13 24 20.8          17.8 RoEF062926
         K14F37T  C2014 03 28.79053 10 34 13.98 +05 37 25.4                qEF062246
         K14F37T  C2014 03 28.79083 10 34 14.50 +05 37 00.8                qEF062246
         K14F37T  C2014 03 28.79099 10 34 14.75 +05 36 47.3                qEF062246
         K14F37T  C2014 03 28.79111 10 34 14.98 +05 36 37.5                qEF062246
         K14F37T  C2014 03 28.79123 10 34 15.18 +05 36 27.1                qEF062246
         K14F37T  C2014 03 28.79135 10 34 15.36 +05 36 17.0                qEF062246
         K14F37T  C2014 03 28.79146 10 34 15.57 +05 36 07.4                qEF062246
         K14F37T  C2014 03 28.79159 10 34 15.78 +05 35 56.6                qEF062246
         K14F37T  C2014 03 28.79171 10 34 15.98 +05 35 46.5                qEF062246
         K14F37T  C2014 03 28.79343 10 34 18.84 +05 33 21.7          17.1 RqEF062246
         K14F37T  C2014 03 28.79380 10 34 19.44 +05 32 51.2                qEF062246
         K14F37T  C2014 03 28.79391 10 34 19.64 +05 32 40.3                qEF062246
         K14F37T  C2014 03 28.79409 10 34 19.90 +05 32 26.2                qEF062246
         K14F37T  C2014 03 28.79426 10 34 20.23 +05 32 11.5                qEF062246
         K14F37T  C2014 03 28.79468 10 34 20.87 +05 31 36.6                qEF062246
         K14F37T  C2014 03 28.79485 10 34 21.21 +05 31 22.0                qEF062246
         K14F37T KC2014 03 28.83259 10 35 27.50 +04 37 40.7          17.5 VqEF062595
         K14F37T KC2014 03 28.83534 10 35 32.18 +04 33 33.0          17.6 VqEF062595
         K14F37T  C2014 03 28.84583 10 35 47.88 +04 16 34.6          17.3 RqEF062246
         K14F37T  C2014 03 28.84641 10 35 48.88 +04 15 42.3                qEF062246
         K14F37T  C2014 03 28.84654 10 35 49.10 +04 15 29.7                qEF062246
         K14F37T  C2014 03 28.84672 10 35 49.40 +04 15 13.7                qEF062246
         K14F37T  C2014 03 28.84684 10 35 49.62 +04 15 02.7                qEF062246
         K14F37T  C2014 03 28.84701 10 35 49.92 +04 14 46.5                qEF062246
         K14F37T  C2014 03 28.84721 10 35 50.24 +04 14 28.6                qEF062246
         K14F37T  C2014 03 28.84735 10 35 50.48 +04 14 16.7          17.5 RqEF062246
         K14F37T  C2014 03 28.84750 10 35 50.76 +04 14 02.2                qEF062246
         K14F37T  C2014 03 28.84766 10 35 51.05 +04 13 47.5                qEF062246
         K14F37T  C2014 03 28.84877 10 35 52.98 +04 12 05.1                qEF062246
         K14F37T  C2014 03 28.84895 10 35 53.29 +04 11 48.9                qEF062246
         K14F37T  C2014 03 28.84909 10 35 53.54 +04 11 36.0          17.0 RqEF062246
         K14F37T KC2014 03 28.84993 10 36 03.07 +04 10 46.9          17.4  qEF062151
         K14F37T KC2014 03 28.85170 10 36 06.17 +04 08 06.0          17.6  qEF062151
         K14F37T KC2014 03 28.85344 10 36 09.20 +04 05 24.8          17.8  qEF062151
         K14F37T KC2014 03 28.85430 10 36 10.70 +04 04 05.6          17.8  qEF062151
         K14F37T KC2014 03 28.85866 10 36 18.37 +03 57 19.0          17.5  qEF062151
    
    Observer details:
    151 Eschenberg Observatory, Winterthur.  Observer M. Griesser.  0.40-m f/5.9
        Hypergraph + CCD.
    246 Klet Observatory-KLENOT.  Observers J. Ticha, M. Tichy, M. Kocer,
        M. Honkova.  Measurer M. Tichy.  1.06-m KLENOT Telescope + CCD.
    291 LPL/Spacewatch II.  Observer R. A. Mastaler.  1.8-m f/2.7 reflector + CCD.
    595 Farra d'Isonzo.  Observers L. Bittesini, E. Pettarin, F. Piani.  Measurer
        E. Pettarin.  0.61-m f/4.0 reflector + CCD.
    703 Catalina Sky Survey.  Observer R. A. Kowalski.  Measurers
        E. J. Christensen, A. R. Gibbs, A. D. Grauer, R. E. Hill, J. A. Johnson,
        R. A. Kowalski, S. M. Larson, F. C. Shelly.  0.68-m Schmidt + CCD.
    926 Tenagra II Observatory.  Observers M. Schwartz, P. R. Holvorcem.  0.81-m
        f/7 Ritchey-Chretien + CCD.
    F51 Pan-STARRS 1, Haleakala.  Observers N. Primak, A. Schultz, T. Goggia,
        M. Willman.  Measurer P. Veres.  1.8-m Ritchey-Chretien + CCD.
    
    Orbital elements:
    2014 FT37                                                Earth MOID = 0.0025 AU
    Epoch 2014 May 23.0 TT = JDT 2456800.5                  MPC
    M  15.83801              (2000.0)            P               Q
    n   0.42892453     Peri.  202.31234     -0.86958440     +0.49371312
    a   1.7413342      Node     7.28950     -0.44247161     -0.77156845
    e   0.4368519      Incl.    3.78964     -0.21918451     -0.40116016
    P   2.30           H   27.6           G   0.15           U   5
    Residuals in seconds of arc
    140325 F51  0.0   0.1+    140328 703  0.3-  0.1-    140328 595  0.4-  0.2+
    140325 F51  0.0   0.2+    140328 926  0.2-  0.3-    140328 595  0.1-  0.6-
    140325 F51  0.0   0.3-    140328 926  0.1-  0.2-    140328 246  0.1+  0.6-
    140328 703  0.1-  0.6+    140328 926  0.1+  0.3-    140328 246  0.0   0.2+
    140328 703 (0.9-  4.8+)   140328 246  0.0   0.6-    140328 246  0.1-  0.5-
    140328 703  0.3-  0.3-    140328 246  0.2+  0.1+    140328 246  0.2-  0.0
    140328 703  0.0   0.5-    140328 246  0.0   0.0     140328 246  0.1-  0.0
    140328 703  0.1-  0.1+    140328 246  0.4+  0.3+    140328 246  0.0   0.6-
    140328 703  0.7+  0.2+    140328 246  0.4+  0.0     140328 246  0.4-  0.2-
    140328 703  0.0   0.6+    140328 246  0.1+  0.0     140328 246  0.5-  0.7+
    140328 703  0.1+  0.4+    140328 246  0.5+  0.3-    140328 246  0.2-  0.0
    140328 926  0.0   0.3-    140328 246  0.4+  0.2-    140328 246  0.0   0.0
    140328 926  0.0   0.0     140328 246  0.4+  0.2-    140328 246  0.0   0.5-
    140328 926  0.0   0.0     140328 246  0.1+  0.1+    140328 246  0.0   0.2-
    140328 291  0.1+  0.3-    140328 246  0.1-  0.8+    140328 246  0.1+  0.2-
    140328 291  0.0   0.2+    140328 246  0.1+  0.8-    140328 151  0.3+  1.1-
    140328 291  0.2+  0.7-    140328 246  0.5-  0.3+    140328 151  0.3+  1.0+
    140328 703  1.1+  0.9+    140328 246  0.2+  0.0     140328 151  0.1+  0.5+
    140328 703  0.2-  0.5+    140328 246  0.8-  0.6+    140328 151  0.1-  0.9+
    140328 703  0.4+  0.6+    140328 246  0.1+  0.4+    140328 151  0.0   0.6-
    
    Ephemeris:
    2014 FT37                a,e,i = 1.74, 0.44, 4                   q = 0.9806
    Date    TT    R. A. (2000) Decl.     Delta      r     Elong.  Phase     V
    2014 02 26    09 58 11.8 +31 06 43   0.1417  1.1211   156.2    20.9    24.6
    ...
    2014 03 13    09 51 59.8 +32 07 03   0.07252 1.0525   142.8    34.8    23.4
    ...
    2014 03 21    09 52 50.5 +30 53 31   0.03790 1.0239   136.8    41.8    22.2
    ...
    2014 03 27    10 06 17.1 +23 21 01   0.01238 1.0070   138.1    41.5    19.7
    2014 03 28    10 16 07.6 +17 24 39   0.0082431.0045   142.2    37.5    18.7
    2014 03 29    10 41 45.2 +00 18 04   0.0043961.0022   152.9    27.0    17.0
    ...
    2014 04 04    21 33 44.1 -39 04 50   0.02226 0.9904    63.7   115.1    23.8
    ...
    2014 04 12    21 44 21.5 -35 03 43   0.05606 0.9818    67.0   109.9    25.5
    ...
    2014 04 27    21 54 13.7 -32 52 22   0.1174  0.9886    77.9    95.4    26.3
    
    A. U. Tomatic                (C) Copyright 2014 MPC           M.P.E.C. 2014-F62
    

    Read MPEC 2014-F61 Read MPEC 2014-F63


    MPEC number:

    Enter an MPEC number in one of the following forms:

    • 1997-B01 (the full form)
    • J97B01 (the packed version of the full form)
    • B01 (the abbreviated form)